This is the latest recevied weather packets stored in our database for station/object N4QD-13. If no packets are shown the sender has not sent any weather packets the latest 10 day(s).
| Time | Temp. | Humidity | Pressure | Rain* | Wind** | Luminosity | Snow |
|---|---|---|---|---|---|---|---|
| 1777214726 | 8.89° C | 96% | 1020 hPa | 0 mm | - | 194 W/m² | - |
| 1777214426 | 8.89° C | 97% | 1020.1 hPa | 0 mm | - | 175 W/m² | - |
| 1777214120 | 8.33° C | 97% | 1020.2 hPa | 0 mm | - | 118 W/m² | - |
| 1777213815 | 8.33° C | 97% | 1020.1 hPa | 0 mm | - | 133 W/m² | - |
| 1777213510 | 8.33° C | 97% | 1019.9 hPa | 0 mm | - | 112 W/m² | - |
| 1777213208 | 8.33° C | 97% | 1020.2 hPa | 0 mm | - | 103 W/m² | - |
| 1777212904 | 8.33° C | 97% | 1020.1 hPa | 0 mm | - | 95 W/m² | - |
| 1777212602 | 8.33° C | 98% | 1019.9 hPa | 0 mm | - | 94 W/m² | - |
| 1777212300 | 8.33° C | 98% | 1019.7 hPa | 0 mm | - | 99 W/m² | - |
| 1777211995 | 8.33° C | 99% | 1019.8 hPa | 0 mm | - | 99 W/m² | - |
| 1777211691 | 8.33° C | 99% | 1019.6 hPa | 0 mm | - | 97 W/m² | - |
| 1777211390 | 8.33° C | 99% | 1019.3 hPa | 0 mm | - | 110 W/m² | - |
| 1777211086 | 8.33° C | 99% | 1019.5 hPa | 0 mm | - | 118 W/m² | - |
| 1777210783 | 8.89° C | 99% | 1019.3 hPa | 0 mm | - | 127 W/m² | - |
| 1777210482 | 8.89° C | 99% | 1019.7 hPa | 0 mm | - | 135 W/m² | - |
| 1777210179 | 8.33° C | 99% | 1019.3 hPa | 0 mm | - | 138 W/m² | - |
| 1777209876 | 8.33° C | 99% | 1019.2 hPa | 0 mm | - | 98 W/m² | - |
| 1777209571 | 8.33° C | 99% | 1019.1 hPa | 0 mm | - | 127 W/m² | - |
| 1777209266 | 8.33° C | 99% | 1019.1 hPa | 0 mm | - | 96 W/m² | - |
| 1777208964 | 8.89° C | 99% | 1019.2 hPa | 0 mm | - | 99 W/m² | - |
| 1777208660 | 8.89° C | 99% | 1018.7 hPa | 0 mm | - | 128 W/m² | - |
| 1777208356 | 8.33° C | 99% | 1018.8 hPa | 0 mm | - | 114 W/m² | - |
| 1777208052 | 8.33° C | 99% | 1018.8 hPa | 0 mm | - | 124 W/m² | - |
| 1777207749 | 8.33° C | 99% | 1018.7 hPa | 0 mm | - | 121 W/m² | - |
| 1777207443 | 8.89° C | 99% | 1018.6 hPa | 0 mm | - | 93 W/m² | - |
* Rain latest hour (hover to see other rain measurements)
** Current wind speed in m/s (hover to see current wind gust speed)